Regional Weather Roundup
Issued by NWS

Home | Current Version | Previous Version | Graphics & Text | Print | Product List | Glossary On
Versions: 1 2 3 4 5 6 7 8 9 10 11 12 13 14 15 16 17 18 19 20 21 22 23 24 25 26 27
000
ASUS45 KSLC 152110
RWRUT

UTAH REGIONAL WEATHER ROUNDUP
NATIONAL WEATHER SERVICE SALT LAKE CITY UT
200 PM MST MON JAN 15 2018

UTZ001>011-023>025-152200-

NORTHERN UTAH

CITY           SKY/WX    TMP DP  RH WIND       PRES   REMARKS
BRIGHAM CITY   SUNNY     43  30  59 CALM      30.30F
HILL AFB       SUNNY     43  27  53 CALM      30.28F
LOGAN          SUNNY     40  28  62 CALM      30.31F
OGDEN          SUNNY     45  29  53 NE3       30.28F
SALT LAKE CITY PTSUNNY   47  31  53 NW8       30.28F
TOOELE VALLEY  SUNNY     41  32  70 N3        30.30S
WENDOVER       SUNNY     42  29  59 E8        30.29F
HEBER CITY       N/A     41  27  56 CALM      30.24F
WEST JORDAN    SUNNY     44  33  64 N6        30.28F

$$

UTZ011>015-024>027-152200-

CENTRAL/NORTHEAST UTAH

CITY           SKY/WX    TMP DP  RH WIND       PRES   REMARKS
PROVO AIRPORT  SUNNY     40  27  59 SW3       30.29F
MOAB/CANYONLAN SUNNY     46  30  53 CALM      30.22F
DELTA          SUNNY     43  30  61 CALM      30.27F
PRICE          SUNNY     44  28  53 S3        30.22F
ROOSEVELT      SUNNY     41  25  52 CALM      30.36S
VERNAL         PTSUNNY   40  23  50 S7        30.32F

$$

UTZ013>016-019>022-027-152200-

SOUTHERN UTAH

CITY           SKY/WX    TMP DP  RH WIND       PRES   REMARKS
BRYCE CANYON   SUNNY     48  26  42 VRB3      30.23F
CEDAR CITY     SUNNY     46  31  55 NE5       30.22F
MILFORD        SUNNY     47  30  51 N14       30.23F
ST GEORGE      CLEAR     55  37  50 CALM      30.17F
HANKSVILLE     SUNNY     48  27  43 CALM      30.25F
BLANDING         N/A     49  26  40 SW7       30.24F

$$

REGIONAL REPORTS     COLORADO/ARIZONA

CITY           SKY/WX    TMP DP  RH WIND       PRES   REMARKS
CRAIG, CO      SUNNY     32  21  64 CALM      30.33F
GRAND JUNCTION SUNNY     47  25  42 N3        30.24F
RIFLE, CO      SUNNY     44  25  47 W13       30.25F
MONTROSE, CO   SUNNY     42  22  44 W8        30.24F
CORTEZ, CO     SUNNY     47  25  42 VRB6      30.15F
COLORADO CITY    N/A     55  32  41 CALM      30.20F
PAGE, AZ       SUNNY     49  30  48 N5        30.19F
GRAND CANYON   SUNNY     55  25  31 NW5       30.20F
KINGMAN, AZ    SUNNY     62  33  33 VRB3      30.13F
FLAGSTAFF, AZ  SUNNY     56   5  13 SW13      30.19F

$$

REGIONAL REPORTS    NEVADA/IDAHO/WYOMING

CITY           SKY/WX    TMP DP  RH WIND       PRES   REMARKS
LAS VEGAS, NV  MOSUNNY   65  34  31 VRB3      30.12F
ELY, NY        MOSUNNY   46  26  45 VRB3      30.25F
ELKO, NV       MOSUNNY   51  23  33 CALM      30.24F
POCATELLO, ID  SUNNY     42  30  62 NE7       30.33F
BURLEY, ID     SUNNY     44  30  57 NE17G26   30.27F
FORT BRIDGER,    N/A     38  24  55 E12       30.34F WCI  31
EVANSTON, WY   SUNNY     37  25  61 E13       30.29F WCI  29
ROCK SPRINGS,  CLOUDY    26  15  63 E10       30.37S WCI  16

$$




USA.gov is the U.S. government's official web portal to all federal, state and local government web resources and services.